Regional Weather Roundup
Issued by NWS

Home | Current Version | Previous Version | Text Only | Print | Product List | Glossary On
Versions: 1 2 3 4 5 6 7 8 9 10 11 12 13 14 15 16 17 18 19 20 21 22 23 24 25 26 27 28 29 30 31 32 33 34 35 36 37 38 39 40 41 42 43 44 45 46 47 48 49 50
000
ASUS46 KSEW 280410
RWRWA

WASHINGTON REGIONAL WEATHER ROUNDUP
NATIONAL WEATHER SERVICE SEATTLE WA
900 PM PDT THU APR 27 2017

NOTE:"FAIR" INDICATES FEW OR NO CLOUDS BELOW 12,000 FEET WITH NO
SIGNIFICANT WEATHER AND/OR OBSTRUCTIONS TO VISIBILITY.

WAZ507-509-555>559-280500-
SEATTLE, TACOMA, EVERETT, AND VICINITY

CITY           SKY/WX    TMP DP  RH WIND       PRES   REMARKS
EVERETT        CLEAR     46  38  73 VRB5      30.15R
BOEING FIELD   CLOUDY    51  41  68 VRB5      30.15R
RENTON         CLOUDY    50  41  71 NW9       30.14R
SEATAC AIRPORT CLOUDY    50  39  66 NE12      30.14R
JBLM-MCCHORD   LGT RAIN  47  45  92 NE5       30.15R
PUYALLUP       DRIZZLE   46  43  87 CALM      30.15R
BREMERTON      NOT AVBL
JBLM-FT LEWIS  MOCLDY    50  35  56 NW6G15    30.18R
TACOMA NARROWS LGT RAIN  46  43  89 CALM      30.15R
$$

WAZ001-503-506-510-514-515-280500-
NORTH INTERIOR

CITY           SKY/WX    TMP DP  RH WIND       PRES   REMARKS
BELLINGHAM     MOCLDY    48  41  76 W3        30.12R
FRIDAY HARBOR  PTCLDY    43  40  89 SW3       30.14R
EASTSOUND      CLEAR     46  39  76 S3        30.12R
PORT ANGELES   CLEAR     44  36  73 W10       30.17R
EDIZ HOOK      FAIR      47  38  69 W12       30.16S
PORT TOWNSEND  FAIR      48  39  71 W10G21    30.16R
NAS WHIDBEY    MOCLDY    50  40  68 W20G26    30.18R
ARLINGTON      MOCLDY    46  32  57 N3        30.17R
BURLINGTON     PTCLDY    46  39  76 CALM      30.14R
$$

WAZ020-022-039-040-504-511-512-280500-
SOUTHWEST INTERIOR

CITY           SKY/WX    TMP DP  RH WIND       PRES   REMARKS
SHELTON        CLEAR     47  36  65 W9        30.13R
OLYMPIA        CLEAR     48  35  60 W10       30.15R
CHEHALIS       FAIR      46  37  71 SW3       30.18R
KELSO          CLOUDY    49  37  63 NW8       30.20R
VANCOUVER      CLEAR     50  39  66 NW8       30.18R
SCAPPOOSE, OR  CLEAR     48  36  63 NW6       30.18R
PORTLAND, OR   PTCLDY    50  38  63 NW10      30.19R
$$

WAZ021-516-517-280500-
WASHINGTON COAST

CITY           SKY/WX    TMP DP  RH WIND       PRES   REMARKS
FORKS          PTCLDY    45  38  76 NW6       30.19R
HOQUIAM        CLEAR     48  39  71 W9        30.19R
ASTORIA, OR    LGT RAIN  48  40  73 NW8       30.21R
$$

WAZ019-023-024-040-567>569-280500-
CASCADE MOUNTAINS AND COLUMBIA GORGE

CITY           SKY/WX    TMP DP  RH WIND       PRES   REMARKS
STAMPEDE PASS  FOG       32  32 100 VRB6      30.03R VSB 1/4
TROUTDALE, OR  PTCLDY    48  42  80 W5        30.18R
THE DALLES, OR PTCLDY    50  36  58 W15       30.10R
$$

WAZ026-027-041>044-520-521-280500-
EAST SLOPES

CITY           SKY/WX    TMP DP  RH WIND       PRES   REMARKS
OMAK           PTCLDY    49  33  54 N10       29.93R
WENATCHEE      CLEAR     49  24  37 NW20      29.98R
ELLENSBURG     CLEAR     43  32  65 NW15      30.00R
YAKIMA         CLEAR     49  32  52 W8        30.02R
SUNNYSIDE ARPT CLEAR     45  32  59 W9        30.01R
$$

WAZ028-034-035-280500-
COLUMBIA BASIN

CITY           SKY/WX    TMP DP  RH WIND       PRES   REMARKS
EPHRATA        MOCLDY    51  22  31 NW16      29.92R
MOSES LAKE     MOCLDY    51  25  36 W13       29.94R
PASCO          PTCLDY    49  31  49 NW10      29.98R
HERMISTON, OR  MOCLDY    50  38  63 W16       30.00R
$$

WAZ036>038-280500-
NORTHEAST WASHINGTON

CITY           SKY/WX    TMP DP  RH WIND       PRES   REMARKS
SPOKANE GEIGER MOCLDY    48  31  51 SW9       29.91R
SPOKANE FELTS  CLOUDY    45  42  89 N3        29.92R
FAIRCHILD AFB  NOT AVBL
COEURDALENE,ID CLOUDY    44  36  73 SE6       29.93R
DEER PARK      CLOUDY    43  38  82 N5        29.92R
$$

WAZ029>033-280500-
SOUTHEAST WASHINGTON

CITY           SKY/WX    TMP DP  RH WIND       PRES   REMARKS
PULLMAN        MOCLDY    43  32  65 SW3       29.96R
LEWISTON, ID   PTCLDY    47  33  58 S6        29.96R
WALLA WALLA    CLOUDY    51  37  58 S8        29.98R
PENDLETON, OR  CLEAR     46  35  65 W20G28    29.99R
$$



USA.gov is the U.S. government's official web portal to all federal, state and local government web resources and services.